Temperature
12 12 12 12 12 12 12 12 13 13 13 14 14 14 14 14 14 14 14 14 14 14 14 14 14 14 14 14 14 14 14 14 14 14 14 14 14 14 14 14 14 14 14
11 11 12 11 12 12 12 12 13 13 13 13 13 14 14 14 14 14 14 14 14 14 14 14 14 14 14 14 14 14 14 14 14 14 14 14 14 14 14 14 14 14 14
11 11 11 11 12 12 12 12 13 13 13 13 13 13 13 13 13 14 14 14 14 14 13 14 14 14 14 14 14 14 14 14 14 14 14 14 14 14 14 14 14 14 14
11 11 11 11 11 11 12 12 12 12 12 13 13 13 13 13 13 13 13 13 13 13 13 13 13 13 13 14 14 14 14 14 14 14 14 14 13 13 13 13 14 14 14
11 11 11 11 11 11 11 12 12 12 12 12 13 13 13 13 13 13 13 13 13 13 13 13 13 13 13 13 13 13 13 14 14 14 13 13 13 13 13 13 13 13 14
11 11 11 11 11 11 11 11 12 12 12 12 12 12 13 13 13 13 13 13 13 13 13 13 13 13 13 13 13 13 13 13 13 13 13 13 13 13 13 13 13 13 13
10 10 11 11 11 11 11 11 12 12 12 12 12 12 12 12 12 12 12 12 13 13 13 12 13 13 13 13 13 13 13 13 13 13 13 13 13 13 13 13 13 13 13
10 10 10 10 10 11 11 11 11 12 12 12 12 12 12 12 12 12 12 12 12 12 12 12 12 12 13 13 13 13 13 13 13 13 13 13 13 13 13 13 13 13 13
9 10 10 10 10 10 11 11 11 11 11 12 12 12 12 12 12 12 12 12 12 12 12 12 12 12 12 12 12 12 12 12 12 12 12 12 12 12 12 12 12 12 12
9 9 9 9 10 10 10 10 11 11 11 11 11 11 11 12 12 12 12 12 12 12 12 12 12 12 12 12 12 12 12 12 12 12 12 12 12 12 12 12 12 12 12
9 9 9 9 9 10 10 10 10 10 10 11 11 11 11 11 11 11 11 11 11 11 11 11 11 11 12 12 12 12 12 12 12 12 12 12 12 12 12 12 12 12 12
9 9 9 9 9 9 9 10 10 10 10 10 11 11 11 11 11 11 11 11 11 11 11 11 11 11 11 11 11 11 11 11 12 12 11 11 11 12 12 12 11 12 12
8 8 8 8 8 9 9 9 9 10 10 10 10 10 10 10 10 10 10 10 10 10 11 10 10 11 11 11 11 11 11 11 11 11 11 11 11 11 11 11 11 11 11
8 8 8 8 8 8 8 9 9 9 9 9 9 10 10 10 10 10 10 10 10 10 10 10 10 10 10 10 10 10 11 11 11 11 11 11 11 11 11 11 11 11 11
8 8 8 8 8 8 8 8 8 8 9 9 9 9 9 9 9 9 9 9 9 9 9 9 10 10 10 10 10 10 10 10 10 10 10 10 10 10 10 10 10 10 10
7 7 7 7 7 7 7 8 8 8 8 8 8 8 8 9 9 9 9 9 9 9 9 9 9 9 9 9 9 9 9 10 10 10 10 10 10 10 10 10 10 10 10
7 7 7 7 7 7 7 7 7 7 7 8 8 8 8 8 8 8 8 8 8 8 8 8 8 9 9 9 9 9 9 9 9 9 9 9 9 10 10 10 10 10 10
6 6 6 6 6 6 6 7 7 7 7 7 7 7 7 7 7 7 7 8 8 8 8 8 8 8 8 8 8 9 9 9 9 9 9 9 9 9 9 9 9 9 9
6 6 6 6 6 6 6 6 6 6 6 6 7 7 7 7 7 7 7 7 7 7 7 7 7 8 8 8 8 8 8 8 8 8 8 9 9 9 9 9 9 9 9
5 5 5 5 5 5 5 5 5 5 6 6 6 6 6 6 6 6 6 6 7 7 7 7 7 7 7 7 7 8 8 8 8 8 8 8 8 8 8 8 9 9 9
5 5 5 5 5 5 5 5 5 5 5 5 5 5 5 5 6 6 6 6 6 6 6 6 6 6 6 7 7 7 7 7 8 7 8 8 8 8 8 8 8 8 8
5 5 5 4 4 4 4 4 4 4 5 5 5 5 5 5 5 5 5 5 5 5 6 6 6 6 6 6 6 6 6 6 7 7 7 7 7 7 7 7 8 8 8
4 4 4 4 4 4 4 4 4 4 4 4 4 4 4 4 4 4 4 5 5 5 5 5 5 5 5 5 5 5 5 5 5 6 7 7 7 7 7 7 7 7 7
3 3 3 3 3 3 3 3 3 3 3 3 4 4 4 4 4 4 4 4 4 4 4 4 4 4 4 4 5 4 4 5 4 5 6 6 6 6 7 7 7 7 7
3 3 3 3 3 3 3 3 2 2 3 3 3 3 3 3 3 3 3 3 3 4 4 4 4 4 4 4 4 4 4 4 4 4 4 5 5 6 6 6 6 6 6
3 3 3 3 2 2 2 2 2 2 2 2 2 2 3 3 3 3 3 3 3 3 3 3 3 3 3 3 3 3 3 3 4 3 3 4 4 5 5 6 6 6 6
Wind_Speed
3 6 6 6 4 5 6 7 8 8 9 9 10 10 10 11 11 11 12 12 12 12 13 13 14 14 15 15 15 15 15 15 15 15 15 15 15 15 15 15 14 13 14
2 4 5 5 5 6 6 7 7 7 8 9 9 10 10 10 11 11 12 11 11 12 12 13 14 14 14 14 15 15 15 15 15 15 14 14 14 14 14 14 13 13 14
3 4 4 4 6 7 7 8 8 7 8 9 9 9 9 9 10 11 11 11 11 11 12 13 13 13 14 14 14 14 14 14 14 14 13 12 12 13 14 14 14 14 14
4 5 5 6 7 7 8 8 8 8 8 9 9 9 9 9 9 10 10 10 11 11 12 12 12 13 13 13 13 13 13 13 13 12 11 10 10 12 13 13 13 14 14
5 5 5 7 7 8 8 8 8 9 9 9 8 8 9 9 9 9 9 10 10 11 11 11 11 12 12 12 12 12 12 12 12 12 11 10 9 11 12 12 13 13 13
5 6 6 7 7 8 8 9 8 8 8 9 9 9 8 9 9 9 9 9 9 9 10 10 10 11 11 11 12 12 11 11 11 10 10 9 8 10 11 11 11 12 12
4 6 6 7 7 7 7 8 8 8 8 8 8 9 9 8 9 8 8 8 8 8 8 9 10 10 10 10 11 11 11 10 10 9 8 8 7 9 9 10 9 10 11
4 6 6 6 7 7 7 7 7 7 8 8 8 8 8 8 8 8 8 8 7 8 8 8 9 9 9 9 10 10 10 10 8 8 7 6 7 7 8 9 9 9 9
5 6 6 6 6 6 7 7 7 7 7 7 8 8 8 8 7 8 7 7 7 8 8 8 8 8 8 8 9 9 9 9 8 7 6 5 5 6 7 8 8 8 8
4 5 5 6 6 6 6 7 8 7 7 7 8 9 8 8 7 7 7 7 7 7 8 8 8 8 8 8 8 8 9 8 8 7 6 5 5 6 6 7 7 7 7
3 4 4 5 5 5 5 6 6 7 6 7 7 8 8 7 6 6 7 6 6 7 7 7 8 8 8 7 7 8 8 7 6 6 5 5 5 5 5 5 6 6 7
1 2 3 4 4 4 3 4 4 5 5 5 5 6 6 6 5 5 6 6 6 6 6 6 7 7 7 6 6 7 6 6 6 4 4 5 5 5 4 4 4 5 6
1 1 2 3 3 3 3 3 3 3 4 4 4 4 5 5 5 5 5 5 6 6 6 6 6 6 6 5 5 5 5 5 4 4 4 4 4 4 4 4 4 4 4
1 1 1 2 2 2 2 1 2 2 2 2 2 3 3 3 3 3 4 4 4 4 5 5 4 5 5 4 3 3 3 3 3 3 3 3 3 2 3 3 3 3 3
1 2 2 1 1 1 1 1 1 1 1 1 1 1 2 2 1 2 2 2 3 3 3 3 3 3 3 3 2 2 2 2 3 3 3 3 3 2 1 1 2 2 2
2 3 2 1 1 1 1 1 1 0 1 1 1 1 0 0 0 1 1 1 2 2 2 1 2 1 1 1 2 2 1 1 2 2 2 2 2 2 1 0 1 1 1
3 3 2 2 1 1 1 1 1 1 1 1 1 2 2 1 1 0 1 1 1 0 1 1 2 2 1 2 1 2 1 1 1 2 2 1 1 2 2 0 1 1 1
3 3 3 2 1 2 1 1 1 1 1 1 2 2 2 2 2 1 1 1 1 0 1 1 1 1 1 1 1 2 2 2 2 2 2 1 1 0 1 1 1 1 1
4 3 3 2 2 2 2 1 1 1 1 1 2 1 2 2 2 2 1 2 1 0 0 0 0 0 1 1 2 2 1 2 2 2 2 2 1 1 0 1 1 1 1
3 3 3 2 2 1 1 1 1 1 1 1 1 2 2 2 2 1 1 1 1 0 1 0 1 1 1 1 2 2 2 2 2 2 2 1 1 1 0 0 1 1 2
2 2 2 2 1 0 1 1 2 2 2 1 2 2 2 2 2 1 1 1 1 2 2 2 1 1 1 1 1 2 2 2 2 2 1 1 1 1 1 1 1 1 2
2 3 2 3 2 2 2 2 2 2 2 2 2 2 2 2 2 3 2 2 2 2 2 2 1 1 1 0 0 0 2 2 2 2 2 2 2 1 1 2 2 2 3
2 3 3 3 2 3 1 0 1 1 1 1 2 2 2 3 3 3 3 3 3 3 3 3 3 3 2 2 1 1 1 2 2 2 2 2 2 2 2 3 3 4 4
3 3 2 2 2 2 1 1 1 1 2 3 2 2 3 3 3 3 4 4 4 3 4 5 4 3 4 3 2 2 2 2 1 2 2 2 3 3 3 3 4 5 5
2 2 2 2 2 1 2 2 2 2 2 2 2 3 3 3 3 3 4 4 4 4 4 4 4 4 4 4 4 2 2 2 2 2 3 3 3 4 4 4 4 5 6
2 1 1 1 2 1 2 2 3 3 2 2 3 3 3 3 3 3 4 4 5 4 5 5 5 6 5 5 4 4 3 3 3 3 4 4 4 4 4 4 4 5 6
Wind_Direction
313 326 334 360 37 54 57 57 55 56 57 62 68 70 72 74 73 74 72 73 75 74 72 72 72 71 72 74 73 71 69 68 68 68 68 70 71 71 71 70 70 71 75
311 330 344 16 53 54 55 57 57 59 60 62 70 71 72 76 76 76 73 74 76 74 73 72 72 72 72 72 71 70 70 69 68 67 65 67 71 71 72 72 75 76 76
14 9 8 40 60 59 56 56 59 61 63 62 68 71 70 77 77 77 75 74 73 73 73 73 72 73 72 71 69 70 71 69 66 65 63 62 69 71 71 72 75 75 76
29 35 32 57 60 56 55 55 56 59 62 63 66 71 71 77 78 77 76 74 73 73 73 74 74 74 74 72 69 70 70 70 65 62 60 59 66 71 72 72 74 74 75
38 41 47 60 57 54 51 51 52 53 57 60 62 67 70 71 74 76 76 74 73 72 72 73 75 75 75 74 71 70 70 70 64 60 57 56 64 71 70 73 74 74 75
41 43 51 57 56 54 51 49 47 49 55 58 58 60 65 67 69 71 74 73 74 74 75 74 77 76 74 73 71 69 70 67 62 58 55 57 64 72 72 73 74 75 75
52 47 52 57 53 50 49 47 46 45 51 56 57 56 58 63 64 66 70 70 73 76 80 78 78 78 76 72 70 69 69 67 62 57 53 54 63 73 75 75 75 78 77
69 51 53 56 54 50 46 44 45 46 51 51 53 54 55 58 62 60 63 66 70 74 79 80 78 78 78 75 73 72 69 67 64 59 51 51 66 76 77 76 76 78 79
67 55 46 50 50 47 47 43 41 48 55 53 50 50 51 52 58 59 56 62 67 69 71 74 76 76 80 80 78 75 71 67 66 62 52 49 63 82 83 80 78 79 81
64 49 38 40 44 42 42 41 39 42 50 54 52 50 47 46 48 54 52 58 63 67 69 69 71 73 76 79 77 74 71 64 60 57 51 46 62 81 87 84 82 81 82
44 30 25 26 31 36 41 41 39 39 43 52 52 52 50 47 48 49 48 53 59 63 68 68 66 68 70 74 76 73 70 63 59 55 50 49 61 75 82 85 85 84 82
341 356 14 16 16 26 36 39 43 42 40 47 52 50 49 47 46 49 50 50 54 60 63 64 64 63 61 64 69 70 65 59 54 50 44 47 56 67 77 83 89 90 88
244 332 360 4 4 18 24 33 38 42 37 43 47 45 48 47 41 43 46 43 48 55 54 55 56 53 56 61 62 61 60 59 47 37 37 41 49 61 72 74 91 98 92
245 280 331 356 0 7 16 19 35 35 28 27 32 43 50 45 33 29 40 40 46 52 48 48 47 42 45 54 66 61 54 54 41 26 25 36 34 47 69 73 86 104 111
239 274 299 322 351 355 13 351 17 15 359 350 341 32 60 51 15 13 28 43 41 51 54 44 44 36 31 33 42 50 33 35 27 16 7 20 21 14 56 89 91 91 110
248 264 277 293 301 320 339 322 298 282 276 301 315 295 208 131 340 354 6 24 29 39 49 53 41 37 20 19 3 1 348 3 0 353 349 353 19 13 356 81 110 94 74
243 256 260 262 274 278 279 270 293 272 241 265 285 287 259 231 229 220 337 330 322 24 53 50 36 37 26 9 331 321 327 327 327 322 320 323 348 4 4 35 102 80 35
241 246 249 261 262 256 267 269 274 271 251 252 259 276 278 256 238 219 275 295 291 172 101 89 68 10 339 328 302 284 303 307 300 290 292 300 293 299 330 351 26 26 8
232 236 242 246 246 254 266 269 275 277 272 258 247 258 271 264 239 224 244 277 279 98 76 224 354 303 281 309 290 277 277 271 283 282 284 288 275 255 309 308 325 346 344
235 234 237 243 249 279 313 323 327 326 313 285 259 252 265 269 256 244 248 280 226 146 221 234 240 293 251 280 287 284 272 266 266 257 259 268 262 236 263 319 349 330 310
245 234 224 232 243 216 252 263 269 271 286 286 280 266 237 237 243 251 261 285 235 213 220 213 243 226 285 325 329 316 301 266 243 231 247 241 254 243 256 262 259 305 302
246 240 231 227 226 222 236 233 242 256 259 270 292 282 264 252 235 231 244 250 241 227 222 218 188 200 257 183 188 304 305 293 285 251 232 225 239 264 279 274 260 263 273
265 254 242 235 230 224 228 338 343 349 336 304 303 298 295 272 257 247 237 242 235 217 220 223 209 196 212 232 215 191 198 249 298 285 253 241 238 238 260 272 268 263 253
262 267 254 234 230 222 188 195 197 231 253 260 270 282 295 283 267 257 253 240 235 224 224 226 221 216 200 219 229 247 233 194 226 286 279 264 259 249 242 260 263 261 252
269 262 253 236 230 215 187 196 205 241 258 284 295 288 289 290 281 272 262 250 241 230 226 228 222 220 213 215 215 227 243 245 226 231 268 277 282 262 249 244 248 251 252
325 323 315 275 262 231 209 214 218 237 261 290 296 284 288 289 286 287 275 260 252 240 230 228 226 218 221 219 216 216 211 210 215 223 251 274 275 270 267 252 239 243 249
Height
1530 1531 1532 1533 1534 1534 1535 1535 1535 1536 1536 1536 1536 1537 1537 1537 1537 1537 1538 1538 1538 1538 1538 1539 1538 1539 1539 1539 1539 1539 1539 1539 1540 1540 1540 1540 1540 1540 1540 1540 1540 1541 1541
1530 1531 1532 1533 1533 1534 1535 1535 1535 1536 1536 1536 1537 1537 1537 1537 1538 1538 1538 1538 1538 1539 1539 1539 1539 1539 1539 1539 1540 1540 1540 1541 1541 1541 1541 1541 1541 1542 1542 1542 1542 1542 1542
1529 1530 1531 1532 1533 1534 1534 1535 1535 1536 1536 1536 1537 1537 1537 1538 1538 1538 1538 1538 1539 1539 1539 1539 1539 1540 1540 1540 1540 1541 1541 1542 1542 1542 1542 1542 1543 1543 1543 1543 1544 1544 1544
1529 1530 1531 1532 1533 1534 1534 1535 1535 1535 1536 1536 1537 1537 1537 1538 1538 1538 1538 1539 1539 1539 1540 1540 1540 1540 1540 1541 1541 1541 1542 1542 1543 1543 1543 1543 1544 1544 1544 1545 1545 1545 1545
1529 1530 1531 1532 1532 1533 1534 1534 1535 1535 1536 1536 1536 1537 1537 1537 1538 1538 1539 1539 1539 1539 1540 1540 1540 1541 1541 1541 1542 1542 1542 1543 1543 1544 1544 1544 1545 1545 1545 1546 1546 1546 1546
1528 1529 1530 1531 1532 1532 1533 1534 1534 1535 1535 1536 1536 1536 1537 1537 1538 1538 1538 1539 1539 1540 1540 1540 1540 1541 1541 1541 1542 1542 1543 1543 1544 1544 1545 1545 1545 1546 1546 1547 1547 1547 1547
1528 1529 1529 1530 1531 1531 1532 1533 1533 1534 1535 1535 1536 1536 1536 1537 1537 1538 1538 1539 1539 1540 1540 1540 1540 1541 1541 1541 1542 1543 1543 1544 1544 1545 1545 1545 1546 1546 1547 1547 1548 1548 1548
1527 1528 1528 1529 1530 1530 1531 1532 1532 1533 1533 1534 1535 1535 1536 1536 1537 1537 1538 1538 1539 1539 1540 1540 1540 1541 1541 1541 1542 1542 1543 1544 1544 1545 1545 1546 1546 1546 1547 1547 1548 1548 1549
1526 1527 1528 1528 1528 1529 1530 1531 1531 1532 1533 1533 1534 1534 1535 1536 1536 1537 1537 1538 1538 1539 1539 1540 1540 1540 1541 1541 1542 1542 1543 1544 1544 1545 1545 1546 1546 1547 1547 1547 1548 1548 1549
1525 1526 1527 1527 1527 1528 1528 1529 1530 1531 1531 1532 1533 1533 1534 1535 1535 1536 1537 1537 1538 1538 1539 1539 1539 1540 1540 1541 1541 1542 1542 1543 1544 1544 1545 1546 1546 1546 1547 1547 1548 1548 1549
1524 1524 1525 1526 1526 1527 1527 1528 1529 1530 1530 1531 1532 1532 1533 1534 1534 1535 1536 1536 1537 1537 1538 1538 1539 1539 1540 1540 1541 1541 1542 1542 1543 1544 1544 1545 1546 1546 1547 1547 1548 1548 1549
1521 1522 1523 1524 1525 1525 1526 1526 1527 1528 1529 1529 1530 1531 1532 1532 1533 1534 1535 1535 1536 1536 1537 1538 1538 1539 1539 1540 1540 1541 1541 1542 1542 1543 1544 1544 1545 1546 1546 1546 1547 1548 1548
1519 1520 1521 1522 1523 1523 1524 1524 1525 1526 1527 1528 1528 1529 1530 1531 1531 1532 1533 1534 1534 1535 1536 1536 1537 1537 1538 1538 1539 1540 1540 1541 1541 1542 1543 1543 1544 1545 1545 1546 1546 1547 1547
1517 1518 1519 1520 1521 1521 1522 1522 1523 1524 1525 1525 1526 1527 1528 1529 1530 1530 1531 1532 1533 1533 1534 1534 1535 1536 1537 1537 1538 1538 1539 1539 1540 1541 1541 1542 1543 1543 1544 1544 1545 1546 1546
1515 1516 1517 1518 1518 1519 1520 1520 1521 1522 1523 1523 1524 1525 1526 1527 1527 1528 1529 1530 1531 1531 1532 1533 1533 1534 1535 1535 1536 1537 1537 1538 1538 1539 1540 1540 1541 1542 1542 1543 1543 1544 1545
1512 1513 1514 1515 1516 1516 1517 1518 1518 1519 1520 1521 1522 1523 1523 1524 1525 1526 1527 1527 1528 1529 1530 1531 1531 1532 1532 1533 1534 1535 1535 1536 1537 1537 1538 1539 1539 1540 1540 1541 1541 1542 1543
1510 1511 1512 1512 1513 1514 1514 1515 1516 1517 1518 1518 1519 1520 1521 1521 1522 1523 1524 1525 1526 1527 1528 1528 1529 1530 1530 1531 1532 1532 1533 1533 1534 1535 1536 1536 1537 1538 1538 1539 1539 1540 1540
1508 1508 1509 1510 1510 1511 1512 1512 1513 1514 1515 1515 1516 1517 1518 1519 1519 1520 1521 1522 1523 1524 1525 1526 1526 1527 1528 1528 1529 1530 1530 1531 1532 1532 1533 1534 1535 1535 1536 1537 1537 1538 1538
1505 1506 1506 1507 1507 1508 1508 1509 1510 1511 1511 1512 1513 1514 1515 1515 1516 1517 1518 1519 1520 1521 1522 1523 1523 1524 1525 1525 1526 1527 1527 1528 1529 1529 1530 1531 1532 1532 1533 1534 1534 1535 1536
1503 1503 1503 1504 1504 1505 1505 1506 1507 1507 1508 1509 1510 1510 1511 1512 1513 1514 1515 1516 1517 1517 1518 1519 1520 1521 1522 1522 1523 1523 1524 1524 1525 1526 1527 1528 1529 1530 1530 1531 1531 1532 1533
1499 1500 1500 1500 1501 1501 1502 1502 1502 1503 1504 1505 1506 1507 1508 1508 1509 1510 1511 1512 1513 1514 1515 1516 1517 1517 1518 1519 1520 1520 1520 1521 1521 1522 1523 1524 1525 1526 1527 1528 1528 1529 1529
1496 1496 1496 1497 1497 1498 1499 1499 1499 1500 1500 1501 1502 1503 1504 1504 1505 1506 1507 1508 1509 1509 1510 1512 1512 1513 1514 1516 1516 1516 1516 1517 1517 1518 1519 1520 1521 1523 1523 1524 1525 1525 1526
1492 1493 1493 1494 1494 1495 1496 1496 1496 1497 1497 1497 1498 1499 1499 1500 1501 1502 1503 1504 1504 1505 1506 1507 1508 1509 1510 1512 1513 1514 1514 1512 1513 1513 1514 1516 1517 1518 1519 1520 1521 1522 1522
1489 1490 1491 1491 1492 1492 1492 1492 1492 1492 1492 1493 1494 1495 1496 1496 1496 1497 1498 1499 1499 1500 1501 1502 1504 1505 1506 1507 1508 1510 1511 1510 1511 1509 1510 1511 1512 1514 1515 1516 1516 1517 1518
1487 1487 1488 1488 1489 1489 1489 1489 1489 1489 1489 1490 1490 1491 1491 1492 1492 1492 1493 1494 1494 1495 1496 1497 1499 1500 1501 1502 1503 1505 1506 1506 1507 1507 1505 1506 1507 1508 1510 1511 1511 1512 1513
1484 1485 1485 1485 1485 1485 1485 1486 1486 1486 1485 1486 1486 1486 1487 1487 1487 1488 1488 1488 1489 1489 1490 1492 1493 1495 1496 1497 1499 1500 1501 1501 1502 1502 1502 1501 1501 1502 1503 1504 1506 1507 1508